Dades meteomassalio
Diari Summary for Gener 30, 2017 Units:  Metric    English   Both
« Previous Day
Next Day »
Diari Semanal Mensual Anual Personalitzat
  Maxima: Minima: Mijana:
Temperatura: -17.8 °C -15.2 °C -12.2 °C
Rosada: -17.8 °C -15.9 °C -13.8 °C
Humitat: Humidity % 60 % 83 %
Velocitat del vent: 0 km/h 0 km/h 2.1 km/h
Racha vent: 0 km/h - -
Vent:- - West
Pressio: 0 hPa 34520.3 hPa -
Pluja: 0 mm    
Historical Graphs
 
 
Tabular Data for Gener 30, 2017
Time Temperature Dew Point Pressure Wind Wind Speed Wind Gust Humidity Rainfall Rate (Hourly) solar Conditions
-17.8 °C -17.8 °C 0 hPa Calm     Humidity % 0 mm SolarRadiationWatts/m^2 W/m2 Conditions
00:03 -13.5 °C -14.8 °C 34693 hPa Calm     85 % 0 mm 0.0 W/m2 CLR
00:08 -13.5 °C -14.8 °C 34703.1 hPa Calm     85 % 0 mm 0.0 W/m2 CLR
00:13 -13.6 °C -14.9 °C 34703.1 hPa Calm     85 % 0 mm 0.0 W/m2 CLR
00:18 -13.6 °C -14.9 °C 34703.1 hPa Calm     85 % 0 mm 0.0 W/m2 CLR
00:23 -13.6 °C -14.8 °C 34703.1 hPa Calm     86 % 0 mm 0.0 W/m2 CLR
00:28 -13.7 °C -14.8 °C 34703.1 hPa Calm     86 % 0 mm 0.0 W/m2 CLR
00:33 -13.7 °C -14.9 °C 34693 hPa Calm     86 % 0 mm 0.0 W/m2 CLR
00:38 -13.7 °C -14.8 °C 34693 hPa Calm     87 % 0 mm 0.0 W/m2 CLR
00:43 -13.7 °C -14.8 °C 34693 hPa Calm     87 % 0 mm 0.0 W/m2 CLR
00:59 -13.8 °C -14.9 °C 34693 hPa Calm     87 % 0 mm 0.0 W/m2 CLR
01:04 -13.8 °C -14.9 °C 34693 hPa Calm     88 % 0 mm 0.0 W/m2 CLR
01:09 -13.9 °C -14.9 °C 34693 hPa Calm     88 % 0 mm 0.0 W/m2 CLR
01:14 -13.9 °C -14.9 °C 34693 hPa Calm     88 % 0 mm 0.0 W/m2 CLR
01:19 -13.9 °C -14.9 °C 34693 hPa Calm     88 % 0 mm 0.0 W/m2 CLR
01:24 -13.9 °C -14.9 °C 34682.8 hPa Calm     88 % 0 mm 0.0 W/m2 CLR
01:29 -13.9 °C -14.9 °C 34682.8 hPa Calm     88 % 0 mm 0.0 W/m2 CLR
01:34 -13.9 °C -14.9 °C 34682.8 hPa Calm     89 % 0 mm 0.0 W/m2 CLR
01:44 -14 °C -14.9 °C 34682.8 hPa Calm     89 % 0 mm 0.0 W/m2 CLR
01:49 -14 °C -14.9 °C 34682.8 hPa Calm     89 % 0 mm 0.0 W/m2 CLR
01:54 -14 °C -14.9 °C 34669.3 hPa Calm     89 % 0 mm 0.0 W/m2 CLR
01:59 -14 °C -14.9 °C 34669.3 hPa Calm     89 % 0 mm 0.0 W/m2 CLR
02:04 -14 °C -14.9 °C 34669.3 hPa Calm     89 % 0 mm 0.0 W/m2 CLR
02:09 -14.1 °C -14.9 °C 34669.3 hPa Calm     89 % 0 mm 0.0 W/m2 CLR
02:14 -14.1 °C -15 °C 34669.3 hPa Calm     89 % 0 mm 0.0 W/m2 CLR
02:19 -14.1 °C -15 °C 34669.3 hPa Calm     89 % 0 mm 0.0 W/m2 CLR
02:24 -14.1 °C -15.1 °C 34669.3 hPa Calm     89 % 0 mm 0.0 W/m2 CLR
02:29 -14.2 °C -15.1 °C 34669.3 hPa Calm     89 % 0 mm 0.0 W/m2 CLR
02:34 -14.2 °C -15.2 °C 34669.3 hPa Calm     89 % 0 mm 0.0 W/m2 CLR
02:39 -14.3 °C -15.1 °C 34669.3 hPa Calm     90 % 0 mm 0.0 W/m2 CLR
02:44 -14.3 °C -15.2 °C 34669.3 hPa Calm     89 % 0 mm 0.0 W/m2 CLR
02:49 -14.4 °C -15.2 °C 34669.3 hPa Calm     90 % 0 mm 0.0 W/m2 CLR
02:54 -14.4 °C -15.2 °C 34669.3 hPa Calm     90 % 0 mm 0.0 W/m2 CLR
02:59 -14.4 °C -15.3 °C 34669.3 hPa Calm     90 % 0 mm 0.0 W/m2 CLR
03:04 -14.5 °C -15.3 °C 34669.3 hPa Calm     90 % 0 mm 0.0 W/m2 CLR
03:09 -14.6 °C -15.4 °C 34669.3 hPa Calm     90 % 0 mm 0.0 W/m2 CLR
03:14 -14.6 °C -15.4 °C 34669.3 hPa Calm     90 % 0 mm 0.0 W/m2 CLR
03:19 -14.7 °C -15.4 °C 34669.3 hPa Calm     91 % 0 mm 0.0 W/m2 CLR
03:24 -14.7 °C -15.4 °C 34669.3 hPa Calm     91 % 0 mm 0.0 W/m2 CLR
03:29 -14.7 °C -15.4 °C 34669.3 hPa Calm     91 % 0 mm 0.0 W/m2 CLR
03:34 -14.8 °C -15.7 °C 34669.3 hPa Calm     90 % 0 mm 0.0 W/m2 CLR
03:39 -14.9 °C -15.7 °C 34669.3 hPa Calm     91 % 0 mm 0.0 W/m2 CLR
03:44 -14.9 °C -15.7 °C 34669.3 hPa Calm     91 % 0 mm 0.0 W/m2 CLR
03:49 -15.1 °C -15.8 °C 34669.3 hPa Calm     91 % 0 mm 0.0 W/m2 CLR
03:54 -15.1 °C -15.8 °C 34669.3 hPa Calm     91 % 0 mm 0.0 W/m2 CLR
04:04 -15.1 °C -15.7 °C 34669.3 hPa Calm     92 % 0 mm 0.0 W/m2 CLR
04:09 -15.1 °C -15.7 °C 34669.3 hPa Calm     92 % 0 mm 0.0 W/m2 CLR
04:17 -15 °C -15.7 °C 34669.3 hPa Calm     92 % 0 mm 0.0 W/m2 CLR
04:22 -14.9 °C -15.6 °C 34669.3 hPa Calm     92 % 0 mm 0.0 W/m2 CLR
04:25 -14.9 °C -15.6 °C 34669.3 hPa Calm     92 % 0 mm 0.0 W/m2 CLR
04:27 -14.8 °C -15.5 °C 34669.3 hPa Calm     92 % 0 mm 0.0 W/m2 CLR
04:32 -14.8 °C -15.4 °C 34669.3 hPa Calm     92 % 0 mm 0.0 W/m2 CLR
04:37 -14.7 °C -15.4 °C 34669.3 hPa Calm     92 % 0 mm 0.0 W/m2 CLR
04:42 -14.7 °C -15.4 °C 34669.3 hPa Calm     92 % 0 mm 0.0 W/m2 CLR
04:52 -14.8 °C -15.5 °C 34669.3 hPa Calm     91 % 0 mm 0.0 W/m2 CLR
04:57 -14.8 °C -15.6 °C 34669.3 hPa Calm     91 % 0 mm 0.0 W/m2 CLR
05:02 -14.8 °C -15.6 °C 34669.3 hPa Calm     91 % 0 mm 0.0 W/m2 CLR
05:07 -14.8 °C -15.5 °C 34669.3 hPa Calm     92 % 0 mm 0.0 W/m2 CLR
05:12 -14.8 °C -15.5 °C 34669.3 hPa Calm     92 % 0 mm 0.0 W/m2 CLR
05:17 -14.8 °C -15.5 °C 34669.3 hPa Calm     92 % 0 mm 0.0 W/m2 CLR
05:22 -14.8 °C -15.4 °C 34669.3 hPa Calm     92 % 0 mm 0.0 W/m2 CLR
05:27 -14.8 °C -15.4 °C 34669.3 hPa Calm     92 % 0 mm 0.0 W/m2 CLR
05:32 -14.8 °C -15.4 °C 34669.3 hPa Calm     92 % 0 mm 0.0 W/m2 CLR
05:37 -14.7 °C -15.4 °C 34669.3 hPa Calm     92 % 0 mm 0.0 W/m2 CLR
05:42 -14.7 °C -15.4 °C 34669.3 hPa Calm     92 % 0 mm 0.0 W/m2 CLR
05:47 -14.7 °C -15.4 °C 34669.3 hPa Calm     92 % 0 mm 0.0 W/m2 CLR
05:52 -14.7 °C -15.4 °C 34669.3 hPa Calm     92 % 0 mm 0.0 W/m2 CLR
05:57 -14.8 °C -15.4 °C 34669.3 hPa Calm     92 % 0 mm 0.0 W/m2 CLR
06:02 -14.8 °C -15.4 °C 34659.1 hPa Calm     92 % 0 mm 0.0 W/m2 CLR
06:07 -14.8 °C -15.4 °C 34669.3 hPa Calm     92 % 0 mm 0.0 W/m2 CLR
06:12 -14.8 °C -15.4 °C 34659.1 hPa Calm     92 % 0 mm 0.0 W/m2 CLR
06:17 -14.8 °C -15.5 °C 34659.1 hPa Calm     92 % 0 mm 0.0 W/m2 CLR
06:22 -14.9 °C -15.6 °C 34669.3 hPa Calm     92 % 0 mm 0.0 W/m2 CLR
06:32 -15.1 °C -15.7 °C 34659.1 hPa Calm     92 % 0 mm 0.0 W/m2 CLR
06:37 -15.1 °C -15.7 °C 34659.1 hPa Calm     92 % 0 mm 0.0 W/m2 CLR
06:42 -15.1 °C -15.7 °C 34659.1 hPa Calm     92 % 0 mm 0.0 W/m2 CLR
06:47 -15.1 °C -15.7 °C 34659.1 hPa Calm     92 % 0 mm 0.0 W/m2 CLR
06:52 -15.1 °C -15.7 °C 34659.1 hPa Calm     92 % 0 mm 0.0 W/m2 CLR
07:02 -15.2 °C -15.8 °C 34659.1 hPa Calm     92 % 0 mm 0.0 W/m2 CLR
07:07 -15.2 °C -15.9 °C 34659.1 hPa Calm     92 % 0 mm 0.0 W/m2 CLR
07:17 -15.2 °C -15.7 °C 34659.1 hPa Calm     93 % 0 mm 0.0 W/m2 CLR
07:22 -15.2 °C -15.8 °C 34659.1 hPa Calm     93 % 0 mm 0.0 W/m2 CLR
07:27 -15.2 °C -15.7 °C 34659.1 hPa Calm     93 % 0 mm 0.0 W/m2 CLR
07:32 -15.1 °C -15.7 °C 34659.1 hPa Calm     93 % 0 mm 0.0 W/m2 CLR
07:37 -15.1 °C -15.7 °C 34659.1 hPa Calm     93 % 0 mm 0.0 W/m2 CLR
07:42 -15.1 °C -15.8 °C 34659.1 hPa Calm     92 % 0 mm 0.0 W/m2 CLR
07:47 -15.2 °C -15.9 °C 34659.1 hPa Calm     92 % 0 mm 0.0 W/m2 CLR
07:52 -15.2 °C -15.8 °C 34659.1 hPa Calm     93 % 0 mm 0.0 W/m2 CLR
07:57 -15.1 °C -15.7 °C 34659.1 hPa Calm     93 % 0 mm 0.0 W/m2 CLR
08:02 -15.1 °C -15.7 °C 34659.1 hPa Calm     93 % 0 mm 0.0 W/m2 OVC
08:07 -15.1 °C -15.7 °C 34659.1 hPa Calm     93 % 0 mm 0.0 W/m2 OVC
08:12 -15.2 °C -15.7 °C 34659.1 hPa Calm     93 % 0 mm 0.0 W/m2 OVC
08:17 -15.2 °C -15.8 °C 34659.1 hPa Calm     93 % 0 mm 5.0 W/m2 OVC
08:22 -15.2 °C -15.8 °C 34659.1 hPa Calm     93 % 0 mm 9.0 W/m2 BKN
08:27 -15.2 °C -15.7 °C 34659.1 hPa Calm     93 % 0 mm 11.0 W/m2 BKN
08:32 -15.1 °C -15.7 °C 34659.1 hPa Calm     93 % 0 mm 18.0 W/m2 BKN
08:37 -15.1 °C -15.6 °C 34659.1 hPa Calm     93 % 0 mm 21.0 W/m2 BKN
08:42 -14.9 °C -15.6 °C 34659.1 hPa Calm     93 % 0 mm 28.0 W/m2 BKN
08:47 -14.9 °C -15.5 °C 34659.1 hPa Calm     93 % 0 mm 37.0 W/m2 BKN
08:52 -14.8 °C -15.4 °C 34659.1 hPa Calm     93 % 0 mm 47.0 W/m2 SCT
08:57 -14.8 °C -15.3 °C 34659.1 hPa Calm     93 % 0 mm 51.0 W/m2 SCT
09:02 -14.7 °C -15.3 °C 34659.1 hPa Calm     93 % 0 mm 95.0 W/m2 FEW
09:07 -14.6 °C -15.2 °C 34659.1 hPa Calm     93 % 0 mm 109.0 W/m2 CLR
09:12 -14.5 °C -15.1 °C 34659.1 hPa Calm     93 % 0 mm 135.0 W/m2 CLR
09:17 -14.3 °C -14.9 °C 34659.1 hPa Calm     93 % 0 mm 171.0 W/m2 CLR
09:22 -14.1 °C -14.7 °C 34659.1 hPa Calm     93 % 0 mm 160.0 W/m2 CLR
09:27 -13.9 °C -14.6 °C 34659.1 hPa Calm     93 % 0 mm 113.0 W/m2 CLR
09:33 -13.9 °C -14.6 °C 34659.1 hPa Calm     92 % 0 mm 63.0 W/m2 CLR
09:38 -13.8 °C -14.6 °C 34669.3 hPa Calm     92 % 0 mm 56.0 W/m2 FEW
09:43 -13.8 °C -14.5 °C 34659.1 hPa Calm     92 % 0 mm 98.0 W/m2 FEW
09:48 -13.7 °C -14.4 °C 34659.1 hPa Calm     92 % 0 mm 77.0 W/m2 FEW
09:53 -13.7 °C -14.4 °C 34659.1 hPa Calm     91 % 0 mm 111.0 W/m2 CLR
09:58 -13.5 °C -14.2 °C 34669.3 hPa Calm     92 % 0 mm 86.0 W/m2 CLR
10:03 -13.4 °C -14.2 °C 34669.3 hPa Calm     91 % 0 mm 95.0 W/m2 CLR
10:08 -13.3 °C -14.1 °C 34669.3 hPa Calm     91 % 0 mm 153.0 W/m2 CLR
10:13 -13.2 °C -13.9 °C 34669.3 hPa Calm     91 % 0 mm 211.0 W/m2 CLR
10:18 -13 °C -13.8 °C 34659.1 hPa Calm     91 % 0 mm 236.0 W/m2 CLR
10:23 -12.9 °C -13.7 °C 34659.1 hPa Calm     90 % 0 mm 223.0 W/m2 CLR
10:28 -12.7 °C -13.7 °C 34659.1 hPa Calm     89 % 0 mm 248.0 W/m2 CLR
10:33 -12.6 °C -13.6 °C 34669.3 hPa Calm     89 % 0 mm 471.0 W/m2 CLR
10:38 -12.4 °C -13.4 °C 34669.3 hPa Calm     88 % 0 mm 185.0 W/m2 CLR
10:48 -12.1 °C -13.3 °C 34669.3 hPa Calm     86 % 0 mm 167.0 W/m2 CLR
10:53 -11.9 °C -13.3 °C 34669.3 hPa Calm     85 % 0 mm 204.0 W/m2 CLR
10:58 -11.8 °C -13.2 °C 34669.3 hPa Calm     85 % 0 mm 227.0 W/m2 CLR
11:03 -11.7 °C -13.2 °C 34669.3 hPa Calm     84 % 0 mm 146.0 W/m2 CLR
11:08 -11.6 °C -13.2 °C 34669.3 hPa Calm     83 % 0 mm 171.0 W/m2 CLR
11:13 -11.5 °C -13.1 °C 34669.3 hPa Calm     83 % 0 mm 156.0 W/m2 CLR
11:18 -11.4 °C -13.1 °C 34669.3 hPa Calm     82 % 0 mm 148.0 W/m2 CLR
11:23 -11.3 °C -12.9 °C 34669.3 hPa Calm     82 % 0 mm 172.0 W/m2 CLR
11:28 -11.2 °C -13 °C 34669.3 hPa Calm     81 % 0 mm 232.0 W/m2 CLR
11:33 -11.2 °C -13 °C 34659.1 hPa Calm     80 % 0 mm 197.0 W/m2 CLR
11:38 -11.1 °C -12.9 °C 34659.1 hPa Calm     80 % 0 mm 251.0 W/m2 CLR
11:43 -10.9 °C -12.9 °C 34659.1 hPa Calm     79 % 0 mm 258.0 W/m2 CLR
11:48 -10.8 °C -12.8 °C 34659.1 hPa Calm     79 % 0 mm 387.0 W/m2 CLR
11:54 -10.6 °C -12.4 °C 34645.6 hPa Calm     80 % 0 mm 564.0 W/m2 CLR
11:59 -10.4 °C -12.6 °C 34645.6 hPa Calm     77 % 0 mm 272.0 W/m2 CLR
12:04 -10.3 °C -12.6 °C 34645.6 hPa Calm     77 % 0 mm 320.0 W/m2 CLR
12:09 -10.2 °C -12.6 °C 34645.6 hPa Calm     76 % 0 mm 276.0 W/m2 CLR
12:14 -10.2 °C -12.6 °C 34635.4 hPa Calm     75 % 0 mm 279.0 W/m2 CLR
12:19 -10.1 °C -12.6 °C 34635.4 hPa Calm     75 % 0 mm 251.0 W/m2 CLR
12:24 -10.1 °C -12.5 °C 34635.4 hPa Calm     75 % 0 mm 213.0 W/m2 CLR
12:29 -10.1 °C -12.5 °C 34625.2 hPa Calm     75 % 0 mm 181.0 W/m2 CLR
12:34 -10.1 °C -12.4 °C 34625.2 hPa Calm     75 % 0 mm 348.0 W/m2 CLR
12:39 -10 °C -12.6 °C 34625.2 hPa ENE 9 km/h 9 km/h 74 % 0 mm 476.0 W/m2 CLR
12:44 -9.8 °C -12.4 °C 34611.7 hPa NE 20.9 km/h 20.9 km/h 74 % 0 mm 515.0 W/m2 CLR
12:49 -9.7 °C -12.4 °C 34611.7 hPa NNE 11.9 km/h 11.9 km/h 73 % 0 mm 411.0 W/m2 CLR
12:54 -9.7 °C -12.2 °C 34611.7 hPa NE 10.3 km/h 10.3 km/h 74 % 0 mm 338.0 W/m2 CLR
12:59 -9.6 °C -12.4 °C 34611.7 hPa Calm     72 % 0 mm 339.0 W/m2 CLR
13:04 -9.5 °C -12.1 °C 34611.7 hPa North 15 km/h 15 km/h 73 % 0 mm 320.0 W/m2 CLR
13:09 -9.4 °C -12.3 °C 34601.5 hPa NW 15 km/h 15 km/h 71 % 0 mm 373.0 W/m2 CLR
13:15 -9.3 °C -12.4 °C 34601.5 hPa NW 18.2 km/h 18.2 km/h 69 % 0 mm 320.0 W/m2 CLR
13:20 -9.3 °C -12.2 °C 34591.4 hPa WNW 15 km/h 15 km/h 71 % 0 mm 348.0 W/m2 CLR
13:25 -9.1 °C -12.4 °C 34591.4 hPa WNW 25.9 km/h 25.9 km/h 68 % 0 mm 540.0 W/m2 CLR
13:30 -9.1 °C -12.2 °C 34591.4 hPa WNW 11.9 km/h 11.9 km/h 69 % 0 mm 543.0 W/m2 CLR
13:35 -8.9 °C -11.9 °C 34577.8 hPa NW 17.9 km/h 17.9 km/h 70 % 0 mm 563.0 W/m2 CLR
13:40 -9 °C -12.3 °C 34577.8 hPa NW 26.9 km/h 26.9 km/h 68 % 0 mm 422.0 W/m2 CLR
13:45 -9.1 °C -12.1 °C 34577.8 hPa NW 29.8 km/h 29.8 km/h 70 % 0 mm 323.0 W/m2 CLR
13:50 -9.1 °C -12.2 °C 34577.8 hPa NW 20.9 km/h 20.9 km/h 70 % 0 mm 624.0 W/m2 CLR
13:55 -9 °C -12 °C 34567.7 hPa NW 15.6 km/h 15.6 km/h 70 % 0 mm 606.0 W/m2 CLR
14:00 -8.8 °C -12 °C 34567.7 hPa NW 18.2 km/h 18.2 km/h 69 % 0 mm 656.0 W/m2 CLR
14:05 -8.7 °C -12.2 °C 34567.7 hPa WNW 18.2 km/h 18.2 km/h 67 % 0 mm 343.0 W/m2 CLR
14:10 -8.7 °C -12.2 °C 34554.1 hPa NW 20.9 km/h 20.9 km/h 67 % 0 mm 592.0 W/m2 CLR
14:15 -8.7 °C -12.2 °C 34554.1 hPa NW 11.9 km/h 11.9 km/h 67 % 0 mm 547.0 W/m2 CLR
14:20 -8.7 °C -11.8 °C 34554.1 hPa NW 20.9 km/h 21.6 km/h 69 % 0 mm 476.0 W/m2 CLR
14:25 -8.7 °C -12 °C 34544 hPa NW 11.9 km/h 11.9 km/h 68 % 0 mm 506.0 W/m2 CLR
14:30 -8.6 °C -12.1 °C 34544 hPa NW 20.9 km/h 20.9 km/h 67 % 0 mm 466.0 W/m2 CLR
14:35 -8.6 °C -12.1 °C 34544 hPa NW 17.9 km/h 17.9 km/h 66 % 0 mm 380.0 W/m2 CLR
14:40 -8.4 °C -11.9 °C 34544 hPa NW 12.9 km/h 12.9 km/h 67 % 0 mm 513.0 W/m2 CLR
14:45 -8.6 °C -12.1 °C 34544 hPa NW 18.2 km/h 18.2 km/h 66 % 0 mm 522.0 W/m2 CLR
14:50 -8.6 °C -12 °C 34544 hPa NW 20.9 km/h 20.9 km/h 67 % 0 mm 555.0 W/m2 CLR
14:55 -8.6 °C -12.1 °C 34544 hPa NNW 10.3 km/h 10.3 km/h 66 % 0 mm 283.0 W/m2 CLR
15:00 -8.5 °C -12.1 °C 34533.8 hPa Calm     66 % 0 mm 297.0 W/m2 CLR
15:05 -8.5 °C -12.2 °C 34533.8 hPa WNW 9 km/h 9 km/h 65 % 0 mm 357.0 W/m2 CLR
15:10 -8.5 °C -12.3 °C 34533.8 hPa WNW 6 km/h 6 km/h 64 % 0 mm 227.0 W/m2 CLR
15:15 -8.6 °C -12.1 °C 34533.8 hPa WNW 18.2 km/h 18.2 km/h 66 % 0 mm 218.0 W/m2 CLR
15:20 -8.6 °C -12.3 °C 34533.8 hPa Calm     65 % 0 mm 265.0 W/m2 CLR
15:25 -8.4 °C -12.3 °C 34533.8 hPa NW 15 km/h 15 km/h 64 % 0 mm 427.0 W/m2 CLR
15:30 -8.4 °C -12.1 °C 34533.8 hPa NW 10.3 km/h 10.3 km/h 65 % 0 mm 457.0 W/m2 CLR
15:35 -8.4 °C -12.3 °C 34533.8 hPa WNW 17.9 km/h 17.9 km/h 63 % 0 mm 415.0 W/m2 CLR
15:40 -8.4 °C -12.4 °C 34533.8 hPa Calm     62 % 0 mm 285.0 W/m2 CLR
15:45 -8.4 °C -12.4 °C 34533.8 hPa NW 9 km/h 9 km/h 62 % 0 mm 345.0 W/m2 CLR
15:50 -8.3 °C -12.1 °C 34533.8 hPa Calm     64 % 0 mm 367.0 W/m2 CLR
15:55 -8.1 °C -12.3 °C 34533.8 hPa Calm     61 % 0 mm 338.0 W/m2 CLR
16:00 -8 °C -12.4 °C 34533.8 hPa Calm     60 % 0 mm 323.0 W/m2 CLR
16:10 -7.9 °C -12.2 °C 34520.3 hPa Calm     61 % 0 mm 301.0 W/m2 CLR
16:15 -7.9 °C -12.3 °C 34520.3 hPa Calm     60 % 0 mm 63.0 W/m2 CLR
16:20 -8.1 °C -12.4 °C 34520.3 hPa Calm     60 % 0 mm 84.0 W/m2 FEW
16:25 -8.2 °C -12.2 °C 34520.3 hPa Calm     63 % 0 mm 250.0 W/m2 FEW
16:30 -8.1 °C -12.2 °C 34520.3 hPa Calm     62 % 0 mm 91.0 W/m2 CLR
16:35 -8.2 °C -12.2 °C 34520.3 hPa Calm     62 % 0 mm 63.0 W/m2 CLR
16:40 -8.3 °C -12.3 °C 34520.3 hPa Calm     63 % 0 mm 91.0 W/m2 FEW
16:45 -8.4 °C -12.3 °C 34520.3 hPa NNE 9 km/h 9 km/h 63 % 0 mm 98.0 W/m2 CLR
16:50 -8.5 °C -12.2 °C 34520.3 hPa Calm     65 % 0 mm 100.0 W/m2 CLR
16:55 -8.7 °C -12.2 °C 34520.3 hPa Calm     66 % 0 mm 125.0 W/m2 CLR
17:00 -8.7 °C -12.1 °C 34520.3 hPa Calm     67 % 0 mm 86.0 W/m2 CLR
17:05 -8.8 °C -12.2 °C 34520.3 hPa NNE 9 km/h 9 km/h 67 % 0 mm 77.0 W/m2 CLR
17:13 -8.9 °C -12.2 °C 34520.3 hPa Calm     68 % 0 mm 72.0 W/m2 FEW
17:18 -9 °C -12.2 °C 34520.3 hPa North 9 km/h 9 km/h 69 % 0 mm 63.0 W/m2 SCT
17:20 -9.1 °C -12.2 °C 34520.3 hPa North 10.3 km/h 10.3 km/h 69 % 0 mm 60.0 W/m2 SCT
17:22 -9.1 °C -12.3 °C 34533.8 hPa North 3.1 km/h   69 % 0 mm 58.0 W/m2 SCT
17:25 -9.1 °C -12.3 °C 34520.3 hPa Calm     69 % 0 mm 51.0 W/m2 SCT
17:30 -9.2 °C -12.3 °C 34533.8 hPa Calm     70 % 0 mm 37.0 W/m2 BKN
17:36 -9.3 °C -12.3 °C 34533.8 hPa Calm     70 % 0 mm 28.0 W/m2 BKN
17:46 -9.3 °C -12.4 °C 34533.8 hPa Calm     70 % 0 mm 18.0 W/m2 BKN
17:51 -9.4 °C -12.4 °C 34533.8 hPa Calm     70 % 0 mm 12.0 W/m2 BKN
17:56 -9.4 °C -12.3 °C 34533.8 hPa Calm     71 % 0 mm 9.0 W/m2 BKN
18:01 -9.5 °C -12.4 °C 34533.8 hPa Calm     71 % 0 mm 5.0 W/m2 OVC
18:06 -9.6 °C -12.4 °C 34533.8 hPa Calm     71 % 0 mm 0.0 W/m2 OVC
18:11 -9.6 °C -12.5 °C 34533.8 hPa Calm     71 % 0 mm 0.0 W/m2 OVC
18:21 -9.7 °C -12.5 °C 34533.8 hPa Calm     72 % 0 mm 0.0 W/m2 OVC
18:26 -9.8 °C -12.4 °C 34533.8 hPa Calm     73 % 0 mm 0.0 W/m2 CLR
18:31 -9.8 °C -12.4 °C 34533.8 hPa Calm     73 % 0 mm 0.0 W/m2 CLR
18:37 -9.9 °C -12.4 °C 34533.8 hPa Calm     74 % 0 mm 0.0 W/m2 CLR
18:42 -9.9 °C -12.4 °C 34533.8 hPa Calm     74 % 0 mm 0.0 W/m2 CLR
18:47 -9.9 °C -12.5 °C 34533.8 hPa Calm     74 % 0 mm 0.0 W/m2 CLR
18:52 -10.1 °C -12.4 °C 34544 hPa Calm     75 % 0 mm 0.0 W/m2 CLR
18:57 -10.1 °C -12.4 °C 34544 hPa Calm     76 % 0 mm 0.0 W/m2 CLR
19:03 -10.2 °C -12.4 °C 34544 hPa Calm     77 % 0 mm 0.0 W/m2 CLR
19:08 -10.3 °C -12.4 °C 34544 hPa Calm     77 % 0 mm 0.0 W/m2 CLR
19:13 -10.4 °C -12.4 °C 34544 hPa Calm     78 % 0 mm 0.0 W/m2 CLR
19:14 -10.4 °C -12.5 °C 34544 hPa Calm     78 % 0 mm 0.0 W/m2 CLR
19:18 -10.5 °C -12.5 °C 34544 hPa Calm     79 % 0 mm 0.0 W/m2 CLR
19:23 -10.6 °C -12.5 °C 34544 hPa Calm     80 % 0 mm 0.0 W/m2 CLR
19:28 -10.7 °C -12.6 °C 34544 hPa Calm     80 % 0 mm 0.0 W/m2 CLR
19:33 -10.8 °C -12.6 °C 34554.1 hPa Calm     81 % 0 mm 0.0 W/m2 CLR
19:38 -10.8 °C -12.6 °C 34554.1 hPa Calm     81 % 0 mm 0.0 W/m2 CLR
19:43 -10.9 °C -12.6 °C 34554.1 hPa Calm     82 % 0 mm 0.0 W/m2 CLR
19:48 -11.1 °C -12.6 °C 34554.1 hPa Calm     83 % 0 mm 0.0 W/m2 CLR
19:53 -11.2 °C -12.7 °C 34554.1 hPa Calm     83 % 0 mm 0.0 W/m2 CLR
19:58 -11.2 °C -12.7 °C 34554.1 hPa Calm     84 % 0 mm 0.0 W/m2 CLR
20:03 -11.3 °C -12.7 °C 34554.1 hPa Calm     84 % 0 mm 0.0 W/m2 CLR
20:08 -11.3 °C -12.8 °C 34554.1 hPa Calm     84 % 0 mm 0.0 W/m2 CLR
20:13 -11.4 °C -12.7 °C 34554.1 hPa Calm     85 % 0 mm 0.0 W/m2 CLR
20:18 -11.5 °C -12.8 °C 34554.1 hPa Calm     85 % 0 mm 0.0 W/m2 CLR
20:23 -11.6 °C -12.9 °C 34554.1 hPa Calm     85 % 0 mm 0.0 W/m2 CLR
20:33 -11.8 °C -13 °C 34554.1 hPa Calm     86 % 0 mm 0.0 W/m2 CLR
20:38 -11.8 °C -12.9 °C 34554.1 hPa Calm     87 % 0 mm 0.0 W/m2 CLR
20:43 -11.8 °C -13 °C 34554.1 hPa Calm     87 % 0 mm 0.0 W/m2 CLR
20:48 -11.9 °C -13 °C 34554.1 hPa Calm     87 % 0 mm 0.0 W/m2 CLR
20:53 -12 °C -13.1 °C 34554.1 hPa Calm     87 % 0 mm 0.0 W/m2 CLR
20:58 -12.1 °C -13.2 °C 34554.1 hPa Calm     87 % 0 mm 0.0 W/m2 CLR
21:03 -12.1 °C -13.1 °C 34554.1 hPa Calm     88 % 0 mm 0.0 W/m2 CLR
21:08 -12.1 °C -13.1 °C 34554.1 hPa Calm     88 % 0 mm 0.0 W/m2 CLR
21:13 -12.1 °C -13.2 °C 34554.1 hPa Calm     88 % 0 mm 0.0 W/m2 CLR
21:18 -12.2 °C -13.2 °C 34554.1 hPa Calm     88 % 0 mm 0.0 W/m2 CLR
21:23 -12.2 °C -13.2 °C 34554.1 hPa Calm     88 % 0 mm 0.0 W/m2 CLR
21:28 -12.3 °C -13.4 °C 34554.1 hPa Calm     88 % 0 mm 0.0 W/m2 CLR
21:33 -12.4 °C -13.4 °C 34554.1 hPa Calm     88 % 0 mm 0.0 W/m2 CLR
21:38 -12.4 °C -13.4 °C 34554.1 hPa Calm     89 % 0 mm 0.0 W/m2 CLR
21:43 -12.6 °C -13.5 °C 34554.1 hPa Calm     89 % 0 mm 0.0 W/m2 CLR
21:48 -12.6 °C -13.6 °C 34554.1 hPa Calm     89 % 0 mm 0.0 W/m2 CLR
21:53 -12.7 °C -13.5 °C 34554.1 hPa Calm     90 % 0 mm 0.0 W/m2 CLR
21:58 -12.6 °C -13.4 °C 34554.1 hPa Calm     90 % 0 mm 0.0 W/m2 CLR
22:03 -12.7 °C -13.6 °C 34554.1 hPa Calm     89 % 0 mm 0.0 W/m2 CLR
22:08 -12.8 °C -13.7 °C 34554.1 hPa Calm     89 % 0 mm 0.0 W/m2 CLR
22:13 -12.9 °C -13.8 °C 34554.1 hPa Calm     89 % 0 mm 0.0 W/m2 CLR
22:18 -12.9 °C -13.8 °C 34554.1 hPa Calm     90 % 0 mm 0.0 W/m2 CLR
22:23 -13 °C -13.8 °C 34554.1 hPa Calm     90 % 0 mm 0.0 W/m2 CLR
22:28 -13 °C -13.9 °C 34554.1 hPa Calm     90 % 0 mm 0.0 W/m2 CLR
22:33 -13 °C -13.8 °C 34554.1 hPa Calm     91 % 0 mm 0.0 W/m2 CLR
22:38 -13 °C -13.8 °C 34554.1 hPa Calm     91 % 0 mm 0.0 W/m2 CLR
22:43 -13 °C -13.8 °C 34554.1 hPa Calm     91 % 0 mm 0.0 W/m2 CLR
22:48 -13 °C -13.8 °C 34554.1 hPa Calm     91 % 0 mm 0.0 W/m2 CLR
22:53 -13 °C -13.8 °C 34544 hPa Calm     91 % 0 mm 0.0 W/m2 CLR
22:58 -13 °C -13.8 °C 34544 hPa Calm     91 % 0 mm 0.0 W/m2 CLR
23:03 -13.1 °C -13.8 °C 34544 hPa Calm     91 % 0 mm 0.0 W/m2 CLR
23:08 -13.2 °C -14.1 °C 34544 hPa Calm     90 % 0 mm 0.0 W/m2 CLR
23:13 -13.3 °C -14.1 °C 34544 hPa Calm     90 % 0 mm 0.0 W/m2 CLR
23:18 -13.3 °C -14.1 °C 34544 hPa Calm     91 % 0 mm 0.0 W/m2 CLR
23:23 -13.4 °C -14.3 °C 34544 hPa Calm     90 % 0 mm 0.0 W/m2 CLR
23:28 -13.5 °C -14.3 °C 34544 hPa Calm     91 % 0 mm 0.0 W/m2 CLR
23:33 -13.6 °C -14.3 °C 34544 hPa Calm     91 % 0 mm 0.0 W/m2 CLR
23:38 -13.7 °C -14.4 °C 34544 hPa Calm     91 % 0 mm 0.0 W/m2 CLR
23:43 -13.7 °C -14.5 °C 34544 hPa Calm     91 % 0 mm 0.0 W/m2 CLR
23:48 -13.8 °C -14.6 °C 34544 hPa Calm     91 % 0 mm 0.0 W/m2 CLR
23:53 -13.8 °C -14.6 °C 34544 hPa Calm     91 % 0 mm 0.0 W/m2 CLR
23:58 -13.8 °C -14.6 °C 34544 hPa Calm     91 % 0 mm 0.0 W/m2 CLR
Lo Temps de Massalio
Compliments of Weather Underground - 1.25 mb